Location: Newark
(26.8229°N, 81.7649°W)
Time: 23:39:43
(UTC+00:00)

N. Korean satellite - Pass Details

Date: 23 January 2020
Orbit: 456 x 505 km, 97.2° (Epoch: 24 February)

Event Time Altitude Azimuth Distance (km) Brightness Sun altitude
Rises 23:23:37 0° 201° (SSW) 2,469 10.8 -5.4°
Reaches altitude 10° 23:26:16 10° 224° (SW) 1,594 10.4 -5.9°
Maximum altitude 23:28:25 16° 264° (W) 1,275 10.1 -6.4°
Drops below altitude 10° 23:30:35 10° 303° (WNW) 1,594 9.8 -6.8°
Sets 23:33:14 0° 326° (NNW) 2,471 10.4 -7.4°
